Location: Corralito
(10.2667°N, 66.9500°W)
Time: 19:25:25
(UTC+00:00)

Cosmos 2360 Rocket - Pass Details

Date: 23 March 2023
Orbit: 835 x 843 km, 71.0° (Epoch: 08 June)

Event Time Altitude Azimuth Distance (km) Brightness Sun altitude
Rises 22:59:12 0° 2° (N) 3,381 5.4 -5.9°
Reaches altitude 10° 23:01:58 10° 13° (NNE) 2,446 4.5 -6.6°
Maximum altitude 23:06:45 29° 72° (ENE) 1,498 3.0 -7.8°
Drops below altitude 10° 23:11:31 10° 131° (SE) 2,443 4.1 -8.9°
Sets 23:14:15 0° 142° (SE) 3,376 4.9 -9.6°
